TimeGMT,TemperatureF,Dew PointF,Humidity,Sea Level PressureIn,VisibilityMPH,Wind Direction,Wind SpeedMPH,Gust SpeedMPH,PrecipitationIn,Events,Conditions,WindDirDegrees,DateUTC
12:00 AM,41,37,82,29.22,12,SSE,11.2,,,,Partly Cloudy,150,2014-01-01 00:00:00
12:00 AM,41.0,37.4,87,29.21,6.2,SSE,11.5,-,N/A,,Partly Cloudy,150,2014-01-01 00:00:00
12:30 AM,39.2,37.4,93,29.21,6.2,ESE,12.7,-,N/A,,Partly Cloudy,120,2014-01-01 00:30:00
1:00 AM,39,37,89,29.21,12,SE,13.4,,,,Partly Cloudy,140,2014-01-01 01:00:00
1:00 AM,39.2,37.4,93,29.18,6.2,SE,12.7,-,N/A,,Scattered Clouds,140,2014-01-01 01:00:00
1:30 AM,41.0,37.4,87,29.18,6.2,SSE,13.8,-,N/A,,Scattered Clouds,150,2014-01-01 01:30:00
2:00 AM,40,37,84,29.18,12,SE,13.4,,,,Partly Cloudy,140,2014-01-01 02:00:00
2:00 AM,39.2,37.4,93,29.15,6.2,SE,13.8,-,N/A,,Scattered Clouds,140,2014-01-01 02:00:00
2:30 AM,39.2,37.4,93,29.15,6.2,SE,2.3,-,N/A,,Scattered Clouds,140,2014-01-01 02:30:00
3:00 AM,40,38,88,29.15,12,SE,13.4,,,,Partly Cloudy,140,2014-01-01 03:00:00
3:00 AM,39.2,37.4,93,29.12,6.2,SE,13.8,-,N/A,,Scattered Clouds,140,2014-01-01 03:00:00
3:30 AM,41.0,39.2,93,29.12,6.2,SE,15.0,-,N/A,,Scattered Clouds,130,2014-01-01 03:30:00
4:00 AM,41,39,89,29.10,12,ESE,13.4,,,,Partly Cloudy,120,2014-01-01 04:00:00
4:00 AM,41.0,39.2,93,29.09,6.2,ESE,13.8,-,N/A,,Mostly Cloudy,120,2014-01-01 04:00:00
4:30 AM,41.0,39.2,93,29.06,6.2,East,13.8,-,N/A,,Mostly Cloudy,90,2014-01-01 04:30:00
5:00 AM,42,40,89,29.03,12,East,15.7,,,,Mostly Cloudy,100,2014-01-01 05:00:00
5:00 AM,42.8,39.2,87,29.03,6.2,East,16.1,-,N/A,,Mostly Cloudy,100,2014-01-01 05:00:00
5:30 AM,42.8,41.0,93,29.00,6.2,East,15.0,-,N/A,,Overcast,100,2014-01-01 05:30:00
6:00 AM,43,41,90,28.97,12,East,13.4,,,,Overcast,100,2014-01-01 06:00:00
6:00 AM,42.8,41.0,93,28.94,6.2,East,12.7,-,N/A,,Overcast,100,2014-01-01 06:00:00
6:30 AM,44.6,42.8,93,28.91,5.0,East,12.7,-,N/A,,Light Drizzle,100,2014-01-01 06:30:00
7:00 AM,44,42,91,28.90,6,East,15.7,,,Rain,Light Rain,100,2014-01-01 07:00:00
7:00 AM,44.6,42.8,93,28.88,6.2,East,16.1,-,N/A,Rain,Light Rain,100,2014-01-01 07:00:00
7:30 AM,44.6,41.0,87,28.85,6.2,East,17.3,-,N/A,Rain,Light Rain,100,2014-01-01 07:30:00
8:00 AM,44,41,87,28.83,9,East,13.4,,,Rain,Light Rain,90,2014-01-01 08:00:00
8:00 AM,44.6,41.0,87,28.82,6.2,East,12.7,-,N/A,Rain,Light Rain,90,2014-01-01 08:00:00
8:30 AM,42.8,41.0,93,28.80,5.0,ESE,12.7,-,N/A,Rain,Light Rain,110,2014-01-01 08:30:00
9:00 AM,43,41,89,28.77,5,East,15.7,,,Rain,Light Rain,90,2014-01-01 09:00:00
9:00 AM,42.8,41.0,93,28.77,5.0,East,16.1,-,N/A,Rain,Light Rain,90,2014-01-01 09:00:00
9:30 AM,42.8,39.2,87,28.74,6.2,ENE,12.7,-,N/A,Rain,Light Rain,60,2014-01-01 09:30:00
10:00 AM,42,40,91,28.71,9,NNE,13.4,,,Rain,Light Rain,30,2014-01-01 10:00:00
10:00 AM,42.8,41.0,93,28.71,6.2,NNE,13.8,-,N/A,Rain,Light Rain,30,2014-01-01 10:00:00
10:30 AM,42.8,41.0,93,28.68,4.3,North,11.5,-,N/A,Rain,Light Rain,10,2014-01-01 10:30:00
11:00 AM,43,42,92,28.69,2,North,8.9,,,Rain,Light Drizzle,350,2014-01-01 11:00:00
11:00 AM,42.8,41.0,93,28.68,1.9,North,9.2,-,N/A,Rain,Light Rain,350,2014-01-01 11:00:00
11:30 AM,42.8,42.8,100,28.68,2.5,NNW,10.4,-,N/A,,Light Drizzle,340,2014-01-01 11:30:00
12:00 PM,43,42,95,28.69,2,NNW,13.4,,,Rain,Light Drizzle,330,2014-01-01 12:00:00
12:00 PM,42.8,42.8,100,28.68,1.9,NNW,12.7,-,N/A,,Light Drizzle,330,2014-01-01 12:00:00
12:30 PM,42.8,42.8,100,28.68,1.9,NW,13.8,-,N/A,,Light Drizzle,310,2014-01-01 12:30:00
1:00 PM,43,42,95,28.72,5,NW,13.4,,,Rain,Light Drizzle,310,2014-01-01 13:00:00
1:00 PM,42.8,42.8,100,28.71,5.0,NW,12.7,-,N/A,,Light Drizzle,310,2014-01-01 13:00:00
1:30 PM,42.8,42.8,100,28.71,6.2,WNW,12.7,-,N/A,,Mostly Cloudy,290,2014-01-01 13:30:00
2:00 PM,43,42,97,28.74,16,West,13.4,,,Rain,Light Drizzle,280,2014-01-01 14:00:00
2:00 PM,42.8,42.8,100,28.74,6.2,West,12.7,-,N/A,,Mostly Cloudy,280,2014-01-01 14:00:00
2:30 PM,44.6,42.8,93,28.74,6.2,West,11.5,-,N/A,,Mostly Cloudy,280,2014-01-01 14:30:00
3:00 PM,44,42,90,28.77,16,West,11.2,,,,Partly Cloudy,270,2014-01-01 15:00:00
3:00 PM,44.6,42.8,93,28.77,6.2,West,11.5,-,N/A,,Mostly Cloudy,270,2014-01-01 15:00:00
3:30 PM,44.6,41.0,87,28.77,6.2,West,9.2,-,N/A,,Mostly Cloudy,280,2014-01-01 15:30:00
4:00 PM,43,41,91,28.81,16,West,6.7,,,,Scattered Clouds,280,2014-01-01 16:00:00
4:00 PM,42.8,41.0,93,28.80,6.2,West,6.9,-,N/A,,Mostly Cloudy,280,2014-01-01 16:00:00
4:30 PM,42.8,41.0,93,28.82,6.2,West,6.9,-,N/A,,Mostly Cloudy,260,2014-01-01 16:30:00
5:00 PM,43,41,92,28.84,12,West,8.9,,,,Overcast,270,2014-01-01 17:00:00
5:00 PM,42.8,41.0,93,28.82,6.2,West,9.2,-,N/A,,Mostly Cloudy,270,2014-01-01 17:00:00
5:30 PM,42.8,41.0,93,28.85,6.2,WSW,6.9,-,N/A,,Mostly Cloudy,250,2014-01-01 17:30:00
6:00 PM,43,42,93,28.87,12,West,6.7,,,,Partly Cloudy,260,2014-01-01 18:00:00
6:00 PM,42.8,41.0,93,28.85,6.2,West,5.8,-,N/A,,Mostly Cloudy,260,2014-01-01 18:00:00
6:30 PM,44.6,42.8,93,28.88,6.2,WSW,8.1,-,N/A,Rain,Light Rain Showers,250,2014-01-01 18:30:00
7:00 PM,44,41,87,28.90,12,West,11.2,,,Rain,Light Rain Showers,280,2014-01-01 19:00:00
7:00 PM,44.6,41.0,87,28.88,6.2,West,10.4,-,N/A,,Mostly Cloudy,280,2014-01-01 19:00:00
7:30 PM,42.8,41.0,93,28.91,6.2,WSW,9.2,-,N/A,,Mostly Cloudy,240,2014-01-01 19:30:00
8:00 PM,43,41,91,28.93,12,SW,8.9,,,Rain,Light Rain Showers,220,2014-01-01 20:00:00
8:00 PM,42.8,41.0,93,28.91,6.2,SW,8.1,-,N/A,,Mostly Cloudy,220,2014-01-01 20:00:00
8:30 PM,42.8,41.0,93,28.94,6.2,WSW,10.4,-,N/A,,Scattered Clouds,240,2014-01-01 20:30:00
9:00 PM,44,41,84,28.97,11,WSW,13.4,,,Rain,Light Rain Showers,240,2014-01-01 21:00:00
9:00 PM,44.6,41.0,87,28.94,6.2,WSW,13.8,-,N/A,Rain,Light Rain Showers,240,2014-01-01 21:00:00
9:30 PM,44.6,39.2,81,28.97,6.2,WSW,10.4,-,N/A,,Partly Cloudy,240,2014-01-01 21:30:00
10:00 PM,43,39,82,28.98,12,WSW,8.9,,,,Scattered Clouds,240,2014-01-01 22:00:00
10:00 PM,42.8,39.2,87,28.97,6.2,WSW,9.2,-,N/A,,Partly Cloudy,240,2014-01-01 22:00:00
10:30 PM,42.8,39.2,87,28.97,6.2,WSW,10.4,-,N/A,,Partly Cloudy,240,2014-01-01 22:30:00
11:00 PM,43,39,82,29.00,12,WSW,8.9,,,,Scattered Clouds,240,2014-01-01 23:00:00
11:00 PM,42.8,39.2,87,29.00,6.2,WSW,9.2,-,N/A,,Partly Cloudy,240,2014-01-01 23:00:00
11:30 PM,42.8,39.2,87,29.00,6.2,SW,10.4,-,N/A,,Mostly Cloudy,230,2014-01-01 23:30:00